Location: Sungai Dangang
(2.7500°N, 113.8333°E)
Time: 23:02:48
(UTC+00:00)

ARIANE 5 R/B - Pass Details

Date: 16 May 2021
Orbit: 285 x 31809 km, 1.8° (Epoch: 15 June)

Event Time Altitude Azimuth Distance (km) Brightness Sun altitude
Rises 12:24:40 0° 267° (W) 3,640 7.0 -27.9°
Reaches altitude 10° 12:28:19 10° 261° (W) 1,683 5.0 -28.8°
Enters shadow 12:29:06 15° 258° (WSW) 1,265 4.2 -29.0°
